Jefferson, NC

4:58 PM EST on November 11, 2019 (GMT -0500)
Ashe County

Weather History for KGEV - September, 2019

Change the Weather History Date:

Monday, September 9, 2019

  Actual Average Record
Temperature  
Mean Temperature 69 °F -  
Max Temperature 82 °F 75 °F 86 °F (1978)
Min Temperature 56 °F 53 °F 39 °F (1966)
Cooling Degree Days 4    
Growing Degree Days 19 (Base 50)    
Moisture  
Dew Point 56 °F    
Average Humidity 65    
Maximum Humidity 91    
Minimum Humidity 34    
Precipitation  
Precipitation 0.00 in - - ()
Sea Level Pressure  
Sea Level Pressure 30.28 in    
Wind  
Wind Speed 1 mph ()    
Max Wind Speed 7 mph    
Max Gust Speed -    
Visibility 10.0 miles    
Events      
Averages and records for this station are not official NWS values.
T = Trace of Precipitation, MM = Missing Value Source: Averaged Metar Reports

Daily Weather History Graph

Daily Weather History Graph

Search for Another Location

Airport or City:

Astronomy

Sep. 09, 2019 Rise Set
Actual Time 7:03 AM EDT 7:42 PM EDT
Civil Twilight 6:37 AM EDT 8:08 PM EDT
Nautical Twilight 6:06 AM EDT 8:38 PM EDT
Astronomical Twilight 5:34 AM EDT 9:10 PM EDT
Moon 5:29 PM EDT (9/9) 2:41 AM EDT (9/9)
Length of Visible Light 13h 31m
Length of Day
12h 39m
Waxing Gibbous, 83% of the Moon is Illuminated
Sep 9
Waxing Gibbous
Sep 14
Full
Sep 21
Last Quarter
Sep 28
New
Oct 5
First Quarter

Hourly Weather History & Observations

Time (EDT) Temp. Heat Index Dew Point Humidity Pressure Visibility Wind Dir Wind Speed Gust Speed Precip Events Conditions
12:15 AM 64.2 °F - 52.7 °F 66% 30.21 in 10.0 mi Calm Calm - N/A   Clear
12:35 AM 62.2 °F - 52.7 °F 71% 30.21 in 10.0 mi Calm Calm - N/A   Clear
12:55 AM 61.5 °F - 52.0 °F 71% 30.21 in 10.0 mi Calm Calm - N/A   Clear
1:15 AM 61.0 °F - 51.8 °F 72% 30.22 in 10.0 mi WSW 3.5 mph - N/A   Clear
1:35 AM 61.7 °F - 52.0 °F 70% 30.22 in 10.0 mi WSW 4.6 mph - N/A   Clear
1:55 AM 61.9 °F - 51.6 °F 69% 30.22 in 10.0 mi Calm Calm - N/A   Clear
2:15 AM 60.3 °F - 53.4 °F 78% 30.22 in 10.0 mi West 3.5 mph - N/A   Clear
2:35 AM 60.4 °F - 51.6 °F 73% 30.21 in 10.0 mi Calm Calm - N/A   Clear
2:55 AM 59.0 °F - 52.9 °F 80% 30.22 in 10.0 mi Calm Calm - N/A   Clear
3:15 AM 58.8 °F - 53.1 °F 81% 30.22 in 10.0 mi Calm Calm - N/A   Clear
3:35 AM 59.4 °F - 52.9 °F 79% 30.21 in 10.0 mi Calm Calm - N/A   Clear
3:55 AM 58.8 °F - 52.9 °F 81% 30.21 in 10.0 mi Calm Calm - N/A   Clear
4:15 AM 58.1 °F - 53.4 °F 84% 30.21 in 10.0 mi Calm Calm - N/A   Clear
4:35 AM 58.3 °F - 53.2 °F 83% 30.22 in 10.0 mi Calm Calm - N/A   Clear
4:55 AM 57.4 °F - 53.4 °F 87% 30.22 in 10.0 mi Calm Calm - N/A   Clear
5:15 AM 57.9 °F - 53.2 °F 84% 30.23 in 10.0 mi Calm Calm - N/A   Clear
5:35 AM 56.8 °F - 53.2 °F 88% 30.23 in 10.0 mi Calm Calm - N/A   Clear
5:55 AM 58.5 °F - 53.8 °F 84% 30.24 in 10.0 mi Calm Calm - N/A   Clear
6:15 AM 58.3 °F - 53.6 °F 84% 30.24 in 10.0 mi Calm Calm - N/A   Clear
6:35 AM 59.5 °F - 53.6 °F 81% 30.25 in 10.0 mi Calm Calm - N/A   Clear
6:55 AM 57.7 °F - 53.8 °F 87% 30.26 in 10.0 mi Calm Calm - N/A   Clear
7:15 AM 59.2 °F - 53.6 °F 82% 30.27 in 10.0 mi Calm Calm - N/A   Clear
7:35 AM 59.5 °F - 53.4 °F 80% 30.27 in 10.0 mi Calm Calm - N/A   Clear
7:55 AM 59.4 °F - 54.3 °F 83% 30.27 in 10.0 mi Calm Calm - N/A   Clear
8:15 AM 58.3 °F - 55.2 °F 90% 30.28 in 10.0 mi Calm Calm - N/A   Clear
8:35 AM 58.6 °F - 55.9 °F 91% 30.29 in 10.0 mi Calm Calm - N/A   Clear
8:55 AM 61.9 °F - 56.5 °F 82% 30.29 in 10.0 mi Calm Calm - N/A   Clear
9:15 AM 64.9 °F - 58.6 °F 80% 30.30 in 10.0 mi Calm Calm - N/A   Clear
9:35 AM 66.0 °F - 58.8 °F 78% 30.30 in 10.0 mi Calm Calm - N/A   Clear
9:55 AM 68.5 °F - 60.6 °F 76% 30.30 in 10.0 mi Calm Calm - N/A   Clear
10:35 AM 70.0 °F - 61.5 °F 74% 30.30 in 10.0 mi Calm Calm - N/A   Clear
10:55 AM 71.6 °F - 61.3 °F 70% 30.30 in 10.0 mi Calm Calm - N/A   Clear
11:15 AM 73.6 °F - 61.0 °F 65% 30.30 in 10.0 mi West 3.5 mph - N/A   Clear
11:35 AM 75.4 °F - 60.3 °F 59% 30.31 in 10.0 mi Calm Calm - N/A   Clear
11:55 AM 77.0 °F - 50.9 °F 40% 30.30 in 10.0 mi WSW 3.5 mph - N/A   Clear
12:15 PM 77.2 °F - 53.1 °F 43% 30.30 in 10.0 mi Calm Calm - N/A   Clear
12:35 PM 78.1 °F - 47.7 °F 34% 30.29 in 10.0 mi WSW 4.6 mph - N/A   Clear
12:55 PM 79.5 °F - 50.7 °F 36% 30.29 in 10.0 mi Calm Calm - N/A   Clear
1:15 PM 79.9 °F - 50.9 °F 36% 30.29 in 10.0 mi West 3.5 mph - N/A   Clear
1:35 PM 80.4 °F - 52.3 °F 38% 30.29 in 10.0 mi West 4.6 mph - N/A   Clear
1:55 PM 80.8 °F 80.6 °F 55.0 °F 41% 30.29 in 10.0 mi West 6.9 mph - N/A   Clear
2:15 PM 81.5 °F 81.0 °F 55.0 °F 40% 30.28 in 10.0 mi West 6.9 mph - N/A   Clear
2:35 PM 81.7 °F 81.2 °F 55.2 °F 40% 30.28 in 10.0 mi West 4.6 mph - N/A   Clear
2:55 PM 81.1 °F 80.9 °F 55.6 °F 41% 30.27 in 10.0 mi West 4.6 mph - N/A   Clear
3:15 PM 81.7 °F 81.3 °F 55.6 °F 41% 30.28 in 10.0 mi West 3.5 mph - N/A   Clear
3:35 PM 81.5 °F 81.1 °F 55.4 °F 41% 30.28 in 10.0 mi WSW 3.5 mph - N/A   Clear
3:55 PM 82.2 °F - 52.5 °F 36% 30.28 in 10.0 mi West 6.9 mph - N/A   Clear
4:15 PM 81.9 °F 81.0 °F 53.4 °F 37% 30.28 in 10.0 mi West 6.9 mph - N/A   Clear
4:35 PM 82.4 °F 81.4 °F 53.8 °F 37% 30.27 in 10.0 mi West 4.6 mph - N/A   Clear
4:55 PM 81.5 °F 81.1 °F 55.4 °F 41% 30.27 in 10.0 mi West 6.9 mph - N/A   Clear
5:15 PM 80.8 °F 80.8 °F 56.5 °F 43% 30.27 in 10.0 mi West 4.6 mph - N/A   Clear
5:55 PM 79.7 °F - 58.1 °F 47% 30.27 in 10.0 mi West 4.6 mph - N/A   Clear
6:35 PM 77.9 °F - 58.6 °F 51% 30.29 in 10.0 mi Calm Calm - N/A   Clear
6:55 PM 77.4 °F - 58.8 °F 53% 30.30 in 10.0 mi Calm Calm - N/A   Clear
7:15 PM 77.5 °F - 59.7 °F 54% 30.30 in 10.0 mi Calm Calm - N/A   Clear
7:35 PM 77.0 °F - 59.0 °F 54% 30.31 in 10.0 mi Calm Calm - N/A   Clear
7:55 PM 76.8 °F - 58.3 °F 53% 30.31 in 10.0 mi Calm Calm - N/A   Clear
8:15 PM 75.4 °F - 59.7 °F 58% 30.31 in 10.0 mi Calm Calm - N/A   Clear
8:35 PM 69.4 °F - 60.4 °F 73% 30.32 in 10.0 mi Calm Calm - N/A   Clear
8:55 PM 72.1 °F - 59.5 °F 64% 30.32 in 10.0 mi Calm Calm - N/A   Clear
9:15 PM 71.2 °F - 59.7 °F 67% 30.33 in 10.0 mi Calm Calm - N/A   Clear
9:35 PM 71.2 °F - 59.5 °F 66% 30.34 in 10.0 mi West 3.5 mph - N/A   Clear
9:55 PM 71.8 °F - 59.2 °F 64% 30.34 in 10.0 mi Calm Calm - N/A   Clear
10:15 PM 70.7 °F - 59.2 °F 67% 30.34 in 10.0 mi West 3.5 mph - N/A   Clear
10:35 PM 67.3 °F - 59.9 °F 77% 30.35 in 10.0 mi West 3.5 mph - N/A   Clear
11:15 PM 67.3 °F - 60.1 °F 78% 30.35 in 10.0 mi Calm Calm - N/A   Clear
11:35 PM 65.7 °F - 60.4 °F 83% 30.36 in 10.0 mi Calm Calm - N/A   Clear
11:55 PM 67.5 °F - 60.8 °F 79% 30.36 in 10.0 mi Calm Calm - N/A   Clear